Regional Weather Roundup
Issued by NWS Sioux Falls, SD

Home | Current Version | Previous Version | Text Only | Print | Product List | Glossary Off
Versions: 1 2 3 4 5 6 7 8 9 10 11 12 13 14 15 16 17 18 19 20 21 22 23 24 25 26 27 28 29 30 31 32 33 34 35 36 37 38 39 40 41 42 43 44 45 46 47 48 49 50

000
ASUS43 KFSD 171902
RWRFSD

WEATHER ROUNDUP FOR SE SOUTH DAKOTA/SW MINNESOTA/NW IOWA
NATIONAL WEATHER SERVICE SIOUX FALLS SD
100 PM CST TUE JAN 17 2017

NOTE: "FAIR" INDICATES FEW OR NO CLOUDS BELOW 12,000 FEET WITH NO
SIGNIFICANT WEATHER AND OR OBSTRUCTIONS TO VISIBILITY.


SDZ038>040-050-052>070-172000-
SOUTHEAST SOUTH DAKOTA

CITY           SKY/WX    TMP DP  RH WIND       PRES   REMARKS
BROOKINGS      SUNNY     25  18  74 W9        29.99F WCI  15
CHAMBERLAIN    SUNNY     32  20  59 CALM      30.00F
HURON          CLOUDY    24  16  71 S5        30.02F WCI  18
MADISON          N/A     23  23 100 W13         N/A  WCI  11
MITCHELL       SUNNY     30  21  69 CALM      30.04F
SIOUX FALLS    SUNNY     28  20  71 W6        30.02F WCI  22
WINNER         FAIR      46  21  37 SW8       29.98F
YANKTON        SUNNY     28  25  86 CALM      30.05F
$$

MNZ071-072-080-081-089-090-097-098-172000-
SOUTHWEST MINNESOTA

CITY           SKY/WX    TMP DP  RH WIND       PRES   REMARKS
FAIRMONT       CLOUDY    30  29  96 W13       30.00S FOG     WCI  20
JACKSON        FOG       30  30 100 W6        30.00S VSB 1/4 WCI  24
LUVERNE        SUNNY     25  21  86 W6        30.03R WCI  18
MARSHALL       SUNNY     29  21  72 W9        29.99F WCI  20
MONTEVIDEO     SUNNY     27  16  63 NW3       30.02S
PIPESTONE      SUNNY     25  21  86 W8        29.99F WCI  16
REDWOOD FALLS  CLOUDY    25  19  78 NW5       30.00F WCI  19
TRACY          SUNNY     33  27  79 W7        29.99S WCI  27
WINDOM         FOG       30  30 100 SW6       29.98F VSB 1/4 WCI  24
WORTHINGTON    SNOW      29  27  92 SW10      29.99F VSB 1/2 WCI  20
$$

IAZ001>003-012>014-020>022-031-032-NEZ013-014-SDZ071-172000-
NORTHWEST IOWA

CITY           SKY/WX    TMP DP  RH WIND       PRES   REMARKS
CHEROKEE       CLOUDY    28  28 100 W6        30.04S WCI  22
DENISON        CLOUDY    28  28 100 W9        30.03S FOG     WCI  20
ESTHERVILLE    CLOUDY    30  30 100 W8        29.99F FOG     WCI  22
LE MARS        SUNNY     28  25  86 SW7       30.06F WCI  21
ORANGE CITY    SUNNY     27  25  93 W6        30.03F WCI  20
SHELDON        SUNNY     27  27 100 W6        30.01F WCI  20
SIOUX CITY     SUNNY     31  24  75 W7        30.06F WCI  24
SPENCER        FOG       30  29  96 W13       30.01F VSB 3/4 WCI  20
STORM LAKE     FOG       28  28 100 W16       30.02S VSB<1/4 WCI  17
$$

ABBREVIATIONS USED IN REMARKS
   TC - TEMPERATURE IN CELSIUS
  WCI - WIND CHILL INDEX
   HX - HEAT INDEX
  VSB - VISIBILITY





USA.gov is the U.S. government's official web portal to all federal, state and local government web resources and services.